Theta_e
336 330 331 341 348 348 346 344 344 342 340 339 337 335 332 329 328 326 325 322 321 321 320 318 316 316 316 315 315 316 314 314 316 315 314 314 316 318 319 319 321 322 324
334 332 335 348 347 344 342 342 340 340 338 335 332 328 325 323 322 319 317 316 316 316 316 317 317 317 318 317 316 316 315 316 316 317 316 315 315 316 318 319 319 319 321
341 342 343 344 343 342 342 339 337 335 333 328 324 322 320 318 318 316 315 316 317 317 317 317 317 317 317 317 318 317 316 315 315 315 315 315 315 314 315 315 316 317 318
341 342 342 341 341 339 338 336 334 330 326 323 319 317 317 316 316 316 317 318 318 317 318 318 317 316 316 316 315 315 315 316 315 315 315 315 314 314 314 315 314 316 317
340 339 339 338 338 338 337 335 330 326 322 319 317 316 317 317 317 318 318 318 319 318 318 316 315 316 313 312 313 313 315 314 314 314 313 314 313 313 315 314 314 314 315
338 338 338 338 337 337 335 331 327 323 320 318 317 317 317 317 315 314 313 317 318 317 316 315 315 315 315 312 312 310 310 311 312 313 313 314 315 314 314 314 315 315 316
336 336 337 335 333 332 330 328 324 322 321 319 318 318 319 321 318 312 311 314 315 315 314 315 315 313 313 312 310 310 311 310 310 310 312 313 314 314 314 315 314 315 314
329 328 325 325 325 326 326 325 323 322 322 321 321 321 321 318 313 310 310 313 314 314 314 315 314 312 311 307 308 310 311 310 311 310 310 310 310 312 314 315 315 314 314
324 322 322 325 326 325 324 323 322 321 321 321 320 321 320 319 314 309 310 313 313 313 313 312 312 311 309 307 307 309 310 311 310 309 307 307 308 308 308 309 311 312 314
321 324 324 321 319 318 322 322 321 320 319 320 320 319 316 316 314 309 310 311 312 312 311 311 310 309 307 306 306 308 309 309 310 310 309 309 309 310 310 310 311 311 312
320 321 320 320 320 320 320 321 321 320 320 319 317 317 316 315 314 310 309 310 311 310 309 309 309 308 308 305 304 307 309 307 309 311 310 310 311 311 311 311 311 312 312
319 319 319 319 318 319 321 320 319 318 315 315 314 314 313 313 311 310 308 307 307 308 309 308 308 306 303 302 304 306 304 304 308 310 310 309 309 309 310 311 312 311 310
320 320 321 320 319 318 318 317 314 314 314 314 313 311 310 310 310 306 304 302 303 304 305 303 303 304 304 305 306 306 307 309 309 308 308 309 309 309 309 310 310 310 309
320 319 318 316 316 316 315 314 314 313 313 312 310 310 310 309 307 305 304 303 302 302 301 303 304 304 304 305 305 306 306 308 307 307 306 307 308 308 310 308 309 310 310
315 313 312 312 314 314 313 313 312 311 309 310 310 309 308 307 304 302 300 300 300 300 301 303 304 304 305 305 305 305 305 305 305 305 306 306 307 308 308 307 308 311 311
315 313 312 312 313 313 312 311 310 309 307 306 305 306 307 303 301 301 300 301 300 301 304 304 305 304 304 303 303 303 303 303 303 304 305 305 307 307 306 306 308 310 312
315 314 313 313 313 309 309 311 311 307 306 305 304 303 303 302 301 301 301 302 301 302 304 304 302 302 302 302 302 303 303 303 302 303 304 305 304 304 305 306 308 309 311
315 313 314 312 308 309 310 311 311 311 310 309 304 304 301 301 301 301 302 303 302 302 302 302 302 301 301 301 302 303 304 304 304 303 304 303 303 303 304 307 307 310 311
314 313 312 307 309 308 310 310 309 309 309 308 307 306 305 303 302 303 304 303 302 301 301 301 301 301 301 301 302 302 303 303 303 303 303 303 303 303 304 305 309 309 308
312 309 307 310 309 309 309 308 308 308 308 308 308 308 307 307 306 305 305 303 302 301 301 300 301 300 300 301 302 301 301 302 303 302 303 304 304 304 304 306 305 303 303
312 310 308 309 309 309 309 308 308 308 308 309 310 307 306 306 306 305 304 303 302 302 301 300 300 300 300 301 301 301 302 302 303 303 303 304 305 304 304 303 303 303 304
312 311 310 309 309 308 306 307 309 309 309 309 309 309 306 306 307 306 304 304 303 302 301 301 300 299 299 301 300 301 301 300 302 302 303 304 304 304 304 303 304 304 305
312 312 311 309 308 309 308 309 309 309 308 307 307 307 306 305 304 305 304 304 302 302 301 301 300 300 299 300 300 300 299 297 300 300 303 304 304 304 304 304 304 303 303
309 310 310 310 308 308 309 309 307 306 305 305 304 304 303 302 302 303 303 302 301 301 300 300 300 300 299 299 299 298 298 297 300 301 303 303 304 305 304 305 304 303 304
306 306 306 306 306 307 307 306 305 305 304 302 301 301 301 302 301 301 301 300 300 300 299 299 299 299 299 298 297 296 296 298 300 302 303 304 304 305 305 304 305 304 305
304 304 305 305 305 305 305 304 304 303 303 302 302 301 300 300 299 299 298 298 298 298 297 298 298 298 298 298 294 295 297 297 301 302 302 305 303 304 304 305 304 306 306
Wind_Speed
22 18 23 20 14 14 10 9 9 9 8 7 8 8 9 6 3 1 2 2 3 4 4 6 8 8 11 13 15 15 16 16 14 19 20 20 18 20 21 20 20 21 21
8 29 29 22 17 14 12 10 10 10 11 13 12 8 5 2 1 1 2 2 3 4 5 7 10 12 11 13 15 12 16 16 18 19 23 22 20 19 20 19 21 19 20
20 18 20 17 16 14 12 11 13 14 14 12 9 5 2 1 2 1 1 3 5 7 8 10 12 12 13 15 14 17 19 20 21 23 25 26 24 20 20 20 21 19 19
16 16 15 17 14 14 14 15 14 13 10 8 4 3 2 2 2 2 3 6 8 9 10 11 13 13 12 12 16 18 20 19 23 26 24 27 23 20 19 20 21 19 18
18 15 15 14 14 15 16 14 12 11 8 5 6 3 2 2 4 4 7 10 11 12 12 14 15 10 15 10 12 15 17 21 23 26 25 22 17 22 14 19 21 21 18
15 14 12 13 12 13 13 13 11 9 7 7 5 3 4 5 6 8 8 9 11 13 15 16 14 14 7 12 12 17 18 20 24 25 26 24 21 23 20 21 14 18 13
11 12 11 10 8 7 9 9 9 7 6 5 5 5 6 5 7 6 6 9 13 15 13 12 11 9 10 10 15 18 16 14 17 22 26 28 30 28 24 19 19 15 16
13 12 9 6 7 6 3 6 6 5 5 5 5 6 7 5 5 6 9 10 12 10 10 10 10 9 5 10 15 17 17 16 14 17 20 24 24 23 18 17 17 19 20
14 10 3 4 6 3 5 5 3 4 5 5 6 5 5 3 6 7 8 12 12 12 10 12 7 9 4 13 15 18 18 17 15 17 18 19 20 21 23 22 24 24 19
8 5 6 6 3 2 2 1 2 5 6 8 7 5 5 7 8 8 8 13 14 13 14 8 9 8 11 15 16 17 18 17 17 17 14 13 14 16 16 17 20 22 21
3 3 4 4 2 1 1 2 3 4 5 6 8 9 7 4 7 10 8 10 13 15 16 12 9 4 15 20 17 16 16 19 20 17 15 13 10 12 14 14 18 20 22
4 3 4 6 4 3 4 4 4 6 11 11 11 12 11 7 4 8 10 9 11 9 12 13 16 18 17 15 14 16 23 22 20 19 17 13 14 15 17 16 16 18 17
4 6 9 9 9 8 7 8 11 10 11 11 9 9 10 9 9 10 11 11 12 11 10 17 13 15 15 17 12 14 17 15 15 16 15 17 16 16 19 15 14 14 17
13 14 12 11 10 9 8 11 11 11 9 5 7 7 9 8 11 12 13 14 17 17 19 16 13 14 14 12 13 13 15 11 15 17 18 19 20 18 17 16 14 13 12
16 14 16 14 12 12 7 5 8 6 7 8 6 7 7 11 10 10 13 15 20 18 15 13 13 13 14 15 17 19 19 18 18 17 18 19 20 19 21 19 13 12 11
6 7 8 10 10 9 10 1 4 3 4 5 7 8 6 7 7 9 11 12 20 16 14 13 15 17 17 16 16 16 16 18 19 21 19 19 20 19 20 19 12 12 12
6 7 7 5 5 6 9 7 2 6 6 5 6 7 8 5 6 8 12 13 9 17 14 15 15 15 16 16 18 16 17 18 21 18 17 18 22 23 19 18 14 9 10
8 7 4 4 5 7 6 4 3 4 6 6 5 6 3 2 3 8 13 13 15 15 14 15 15 15 18 19 18 19 22 20 20 21 18 20 24 21 20 16 13 10 6
5 5 5 6 4 5 3 2 4 4 2 1 9 3 2 4 3 3 9 15 15 15 15 12 12 13 14 19 21 20 22 22 21 20 20 17 29 22 20 19 1 3 16
7 8 7 2 4 3 4 3 4 3 3 4 5 4 5 6 4 4 7 11 14 14 15 16 11 12 14 15 18 20 24 26 23 23 23 21 27 20 17 14 19 22 20
9 7 3 2 3 6 5 9 7 5 6 7 5 2 11 7 7 5 7 8 10 13 14 15 17 14 14 15 19 21 20 25 23 25 27 22 24 20 19 19 23 24 23
4 2 2 3 7 5 2 5 7 10 11 10 8 3 2 8 5 5 7 9 10 11 13 15 16 17 14 15 16 20 21 26 25 23 28 20 21 22 18 20 21 18 17
5 2 2 2 2 3 4 7 6 4 7 10 11 10 10 11 9 7 9 10 11 11 12 13 15 16 16 14 14 17 19 26 27 21 23 17 15 15 12 12 15 18 16
8 6 5 5 8 7 4 3 6 7 11 12 11 12 11 9 8 7 6 8 9 11 11 12 13 14 16 16 14 16 18 24 25 19 19 14 11 9 11 10 11 14 12
10 8 8 8 8 7 7 9 10 12 11 9 8 7 7 7 8 9 9 10 11 12 12 13 12 14 14 14 15 16 19 21 24 17 13 11 8 9 9 11 10 8 4
13 12 11 11 10 10 9 9 9 9 9 7 7 9 11 11 11 11 12 12 12 11 11 11 11 13 13 12 15 13 17 20 23 13 11 10 6 7 4 8 8 5 5
Wind_Direction
110 115 192 244 231 213 200 178 178 180 183 194 160 161 152 151 149 47 352 324 319 328 319 308 308 301 301 301 293 288 288 289 293 300 304 297 297 291 289 287 283 282 269
172 169 188 204 192 174 162 160 175 176 157 151 150 158 150 150 89 3 342 8 348 330 317 308 303 297 297 288 279 288 291 292 287 299 294 291 288 287 285 282 285 282 279
156 162 172 171 159 156 154 156 158 154 151 150 156 149 156 169 161 170 2 332 310 298 301 299 299 300 295 293 298 291 296 292 292 294 297 294 284 289 284 282 280 275 278
154 159 163 157 152 149 150 158 161 156 152 149 142 141 162 159 190 256 289 288 293 294 291 296 296 293 288 295 297 299 291 290 291 285 279 272 282 284 280 278 280 284 283
142 149 144 144 146 158 166 159 161 158 164 175 180 181 187 212 246 264 286 292 293 299 296 297 295 290 291 290 300 297 298 294 296 297 291 295 291 287 293 294 292 288 278
127 128 134 147 156 167 160 155 167 170 185 200 206 238 250 271 248 256 276 290 294 299 298 300 296 289 242 317 306 301 292 287 284 284 284 284 284 277 277 279 291 287 291
127 133 134 136 148 161 156 170 182 193 203 213 237 263 273 258 253 270 300 307 300 303 298 298 298 307 317 319 322 315 305 299 290 283 278 275 280 277 279 275 270 276 280
100 94 99 95 102 151 172 202 203 227 243 251 263 277 275 251 260 293 309 303 304 310 304 300 300 301 325 343 333 323 320 314 308 300 283 280 286 290 287 275 275 276 275
89 91 87 155 129 117 225 213 250 282 298 299 297 282 282 276 285 310 326 312 308 303 301 305 301 301 325 322 321 319 324 320 314 313 295 275 278 276 269 271 269 268 268
121 146 152 148 163 158 139 222 306 320 313 317 319 326 322 322 312 328 329 313 309 307 306 307 283 265 299 312 311 305 311 330 322 320 314 300 284 276 273 253 263 264 260
60 133 138 121 109 58 6 10 5 17 5 345 328 319 306 347 337 341 340 326 325 322 315 320 340 297 310 309 306 289 298 305 308 302 320 323 307 285 270 256 253 258 271
125 126 98 63 35 40 62 57 28 359 327 323 317 319 354 359 8 358 343 340 332 324 316 322 316 312 310 310 309 302 302 291 290 295 302 312 317 325 315 291 268 258 264
81 52 59 65 59 44 20 359 337 330 325 334 347 333 353 27 50 36 24 15 2 344 327 320 312 319 312 306 318 314 314 298 309 310 324 317 317 319 321 306 280 265 259
81 68 57 44 23 9 350 344 332 340 352 353 0 19 63 74 45 27 15 8 2 346 334 320 313 302 298 296 308 325 326 327 322 324 321 323 319 322 325 318 298 265 250
77 54 31 13 351 337 336 360 348 40 23 351 37 46 48 50 37 32 23 16 4 350 336 337 342 342 339 347 347 343 340 337 327 323 314 318 322 326 330 322 298 269 250
72 20 359 334 338 339 343 36 83 54 53 85 67 46 46 63 59 30 15 5 12 1 351 2 5 4 2 353 345 339 340 338 332 322 325 325 329 334 325 326 295 284 247
40 7 4 356 9 8 350 350 84 86 120 90 65 71 94 90 58 27 15 357 6 3 15 16 11 3 354 354 355 352 349 346 338 335 331 356 339 328 319 312 304 266 257
11 61 38 72 33 8 22 17 359 123 142 155 97 112 105 85 59 30 18 1 13 14 10 20 13 5 0 352 346 350 352 351 351 343 343 353 349 333 320 311 290 243 184
32 64 92 99 51 22 25 74 87 58 36 40 128 120 253 282 293 10 11 8 12 13 4 25 7 351 3 0 358 357 354 356 350 353 342 347 353 342 331 329 274 158 122
69 104 108 81 74 55 55 52 22 8 343 346 359 2 8 328 258 254 11 5 7 12 7 1 8 355 3 359 6 4 0 351 4 357 349 5 0 360 5 30 83 91 94
90 119 97 61 39 36 358 31 345 324 326 323 310 277 327 299 321 342 10 358 7 4 8 356 359 5 352 4 1 356 7 359 357 356 347 14 15 20 50 65 88 97 102
66 74 99 20 36 12 62 304 310 321 322 344 345 338 334 317 305 334 346 339 1 2 1 358 358 1 357 356 360 357 1 357 357 350 344 16 28 38 58 65 70 83 90
42 19 20 110 262 310 256 305 320 342 21 26 30 41 44 35 26 10 355 339 349 350 352 354 355 1 1 353 355 355 357 350 350 347 348 1 24 37 59 76 76 84 86
25 31 46 20 11 343 26 32 63 42 40 38 39 38 31 17 11 5 356 351 343 338 343 346 350 353 353 354 352 353 355 353 354 347 344 2 42 57 55 118 89 91 105
34 37 43 39 37 37 46 39 35 44 51 45 46 23 358 347 358 360 350 346 341 338 339 340 343 344 345 349 352 351 351 357 356 355 350 10 50 57 109 92 115 104 114
56 57 53 50 42 38 34 33 33 35 43 32 12 8 11 4 360 1 354 352 347 343 343 344 346 349 352 354 348 352 357 359 1 4 356 355 59 68 64 93 105 113 123